Hourly Data Report for July 26, 2017

PITT MEADOWS CS
BRITISH COLUMBIA

49°12'29.964" N
122°41'24.076" W
5.00 m
1106178
71775
WMM

Download Data

Hourly Data (July 2017)
Hourly Data Report for July 26, 2017
TIME
LST
Temp Definition
°C
Dew Point Definition
°C
Rel Hum Definition
%
Precip. Amount Definition
mm

Wind Dir Definition
10's deg

Wind Spd Definition
km/h
Visibility Definition
km
Stn Press Definition
kPa
Hmdx Definition


Wind Chill Definition


Weather Definition


00:00 17.1 13.8 81 0.0 28 2   101.56     LegendNANA
01:00 15.1 13.2 88 0.0 13 2   101.55     LegendNANA
02:00 15.1 13.4 89 0.0   0   101.56     LegendNANA
03:00 14.8 13.4 92 0.0 9 5   101.59     LegendNANA
04:00 13.8 12.4 91 0.0 12 2   101.63     LegendNANA
05:00 13.4 11.5 88 0.0 13 2   101.69     LegendNANA
06:00 16.2 12.8 80 0.0 11 4   101.72     LegendNANA
07:00 16.6 11.6 72 0.0 19 3   101.76     LegendNANA
08:00 18.8 12.6 67 0.0 22 3   101.78     LegendNANA
09:00 21.2 13.7 62 0.0 21 4   101.78     LegendNANA
10:00 23.3 13.5 54 0.0 20 3   101.74 26   LegendNANA
11:00 24.8 13.8 50 0.0 24 7   101.70 28   LegendNANA
12:00 25.5 12.9 45 0.0 23 7   101.68 28   LegendNANA
13:00 26.5 13.3 44 0.0 23 9   101.66 29   LegendNANA
14:00 24.8 14.0 51 0.0 24 10   101.67 28   LegendNANA
15:00 24.2 13.2 50 0.0 22 7   101.68 27   LegendNANA
16:00 25.2 13.3 48 0.0 21 5   101.61 28   LegendNANA
17:00 25.8 12.2 43 0.0 15 6   101.56 28   LegendNANA
18:00 24.4 13.5 51 0.0 22 6   101.54 27   LegendNANA
19:00 23.7 14.3 55 0.0 20 4   101.52 27   LegendNANA
20:00 21.6 14.3 63 0.0 22 3   101.52 25   LegendNANA
21:00 19.3 14.3 73 0.0 14 2   101.54     LegendNANA
22:00 17.9 13.3 74 0.0 15 3   101.56     LegendNANA
23:00 16.6 13.0 79 0.0 13 4   101.60     LegendNANA

Notes on Data Quality.

Legend

  • E = Estimated
  • M = Missing
  • NA = Not Available*
  • [empty] = Indicates an unobserved value
Date modified: